[[{"header":{"parameterUnit":"m.s-1","parameterCategory":1,"la1":30.2991,"la2":30.254,"lo1":-89.0895,"lo2":-89.0444,"dy":0.0017,"dx":0.0017,"nx":28,"ny":28,"refTime":"2024-06-17T21:00:00:Z","depth":0,"parameterNumber":2,"parameterNumberName":"U-component_of_WINDS"},"data":[0,0,0,0,0,0,0,0,0,0,0,0,0,0,0,0,0,0,0,0,0,0,0,0,0,0,0,0,0,0,0,0,0,0,0,0,0,0,0,0,0,0,0,0,0,0,0,0,0,0,0,0,0,0,0,0,0,0,-10.3191,-10.3191,0,-10.3211,-10.3211,-10.3211,-10.2983,-10.2977,-10.2971,-10.2965,-10.2983,-10.2989,-10.2995,0,0,0,0,0,0,0,0,0,0,0,0,0,-10.2955,-10.2961,-10.3191,-10.3191,-10.3192,-10.3211,-10.3211,-10.3211,-10.2984,-10.2977,-10.2969,-10.2962,-10.2981,-10.2988,-10.2996,0,0,0,0,0,0,0,0,0,0,0,0,0,-10.3024,-10.2962,-10.3191,-10.3081,-10.3071,-10.321,-10.3211,-10.3211,-10.2986,-10.2977,-10.2967,-10.2959,-10.2978,-10.2987,-10.2997,-10.3242,0,0,-10.3025,-10.3029,0,0,0,0,0,0,0,0,-10.3021,-10.3033,-10.3097,-10.3089,-10.3078,-10.3085,-10.3134,-10.3221,-10.2988,-10.3018,-10.2965,-10.2954,-10.3024,-10.3029,-10.3053,-10.3243,-10.3243,-10.3026,-10.3032,-10.3036,-10.3039,0,0,0,0,0,0,0,-10.3016,-10.3031,-10.3198,-10.3098,-10.3087,-10.3029,-10.3029,-10.3149,-10.3073,-10.3015,-10.2998,-10.3004,-10.3017,-10.3045,-10.3052,-10.3244,-10.3026,-10.3034,-10.304,-10.3044,-10.3631,-10.3641,0,0,0,0,0,0,-10.3027,-10.3029,-10.3198,-10.3199,-10.3026,-10.3041,-10.3041,-10.3092,-10.3071,-10.3059,-10.3012,-10.2993,-10.3033,-10.3041,-10.3052,-10.3333,-10.3036,-10.3045,-10.305,-10.3622,-10.3634,-10.3644,0,0,0,0,0,0,-10.3023,-10.3044,-10.3197,-10.311,-10.3125,-10.3055,-10.3115,-10.3097,-10.3124,-10.3069,-10.3054,-10.3054,-10.3026,-10.3039,-10.3195,-10.3331,-10.3049,-10.3058,-10.361,-10.3625,-10.3639,-10.3901,0,0,0,0,0,0,-10.3017,-10.3044,-10.3137,-10.3113,-10.313,-10.3342,-10.3123,-10.3105,-10.3142,-10.3117,-10.3105,-10.3094,-10.302,-10.3183,-10.3205,-10.3338,-10.3065,-10.3597,-10.3617,-10.3634,-10.388,-10.3923,-10.396,0,0,0,0,0,-10.3009,-10.321,-10.3143,-10.3164,-10.3245,-10.335,-10.336,-10.3271,-10.3154,-10.3245,-10.321,-10.3094,-10.3314,-10.3201,-10.3224,-10.3362,-10.3588,-10.3611,-10.3633,-10.3862,-10.3915,-10.3959,0,0,0,0,0,0,-10.325,-10.3205,-10.3129,-10.3329,-10.3346,-10.3312,-10.3424,-10.3331,-10.338,-10.3355,-10.3243,-10.3242,-10.3416,-10.3406,-10.328,-10.3597,-10.343,-10.3458,-10.3596,-10.3646,-10.3685,-10.3681,-10.3073,0,0,0,0,0,-10.3327,-10.3417,-10.3372,-10.3553,-10.3565,-10.3495,-10.3537,-10.3468,-10.3479,-10.3485,-10.346,-10.3476,-10.3547,-10.3597,-10.3661,-10.388,-10.3871,-10.3986,-10.4027,-10.406,-10.4083,-10.4194,-10.4244,-10.3718,-10.3718,-10.3717,0,0,-10.3485,-10.3472,-10.3535,-10.3601,-10.3605,-10.3699,-10.3501,-10.361,-10.3677,-10.3501,-10.3645,-10.363,-10.364,-10.3828,-10.3909,-10.3824,-10.4228,-10.4088,-10.4115,-10.412,-10.4222,-10.4272,-10.4317,-10.3733,-10.373,-10.3728,0,0,-10.382,-10.3821,-10.3969,-10.3978,-10.3988,-10.394,-10.3976,-10.3957,-10.3939,-10.4084,-10.3953,-10.4033,-10.4161,-10.4171,-10.4194,-10.4536,-10.4429,-10.4561,-10.4767,-10.4877,-10.4918,-10.4954,-10.5071,-10.5115,-10.4586,-10.4586,-10.4587,0,-10.4014,-10.4151,-10.4057,-10.4174,-10.4205,-10.4052,-10.42,-10.4213,-10.4244,-10.4268,-10.4173,-10.4329,-10.4325,-10.4511,-10.4595,-10.4621,-10.4655,-10.4558,-10.492,-10.4955,-10.4988,-10.5098,-10.5143,-10.4602,-10.46,-10.4598,-10.4597,0,-10.4388,-10.4485,-10.4604,-10.4636,-10.4682,-10.4815,-10.4739,-10.4797,-10.4726,-10.4688,-10.4836,-10.4827,-10.4884,-10.4925,-10.4856,-10.5102,-10.5048,-10.494,-10.4768,-10.5055,-10.5156,-10.5198,-10.4624,-10.4618,-10.4613,-10.461,0,0,-10.4869,-10.485,-10.4894,-10.4906,-10.4907,-10.4979,-10.5106,-10.5162,-10.5211,-10.524,-10.5339,-10.5452,-10.535,-10.5376,-10.5308,-10.5406,-10.5671,-10.5283,-10.5282,-10.5351,-10.5936,-10.6014,-10.6064,-10.5604,-10.5612,-10.5618,-10.5934,0,-10.519,-10.5402,-10.5322,-10.5539,-10.5626,-10.5483,-10.5592,-10.5604,-10.5573,-10.5641,-10.5607,-10.5686,-10.555,-10.5564,-10.5655,-10.562,-10.5786,-10.5597,-10.5691,-10.5696,-10.5687,-10.6118,-10.62,-10.6498,-10.5973,-10.598,-10.5985,0,-10.5592,-10.5635,-10.5861,-10.5845,-10.5878,-10.5978,-10.6022,-10.6091,-10.6102,-10.6072,-10.6103,-10.6013,-10.6133,-10.5969,-10.6131,-10.6004,-10.6039,-10.6029,-10.6038,-10.6037,-10.5853,-10.6124,-10.6591,-10.6634,-10.6047,-10.6042,-10.6038,0,-10.5913,-10.6029,-10.6178,-10.6194,-10.618,-10.6252,-10.625,-10.6252,-10.6291,-10.6331,-10.6354,-10.6409,-10.6438,-10.6481,-10.6408,-10.6296,-10.658,-10.641,-10.6555,-10.6557,-10.6615,-10.6611,-10.7089,-10.665,-10.665,-10.6649,-10.6648,0,-10.6276,-10.6418,-10.6321,-10.6412,-10.6567,-10.6475,-10.6631,-10.6613,-10.6616,-10.67,-10.6583,-10.6664,-10.6566,-10.6638,-10.6582,-10.6722,-10.6738,-10.6715,-10.6697,-10.6722,-10.6724,-10.6738,-10.6713,-10.6661,-10.6658,-10.6656,-10.6654,0,-10.6658,-10.6599,-10.6751,-10.6727,-10.6725,-10.684,-10.6818,-10.69,-10.6863,-10.6971,-10.6991,-10.6931,-10.701,-10.6943,-10.702,-10.6982,-10.7167,-10.7123,-10.7163,-10.7148,-10.7295,-10.728,-10.7793,-10.7854,-10.7383,-10.7387,-10.7391,0,-10.689,-10.6996,-10.6984,-10.7031,-10.7037,-10.7117,-10.7155,-10.707,-10.7116,-10.7136,-10.7216,-10.7285,-10.7334,-10.7466,-10.7429,-10.7486,-10.7439,-10.7615,-10.7446,-10.7467,-10.7434,-10.7426,-10.7434,-10.7647,-10.7653,-10.7657,-10.7661,0,-10.7306,-10.7272,-10.7333,-10.7386,-10.7436,-10.7473,-10.75,-10.7547,-10.7459,-10.7516,-10.7595,-10.7634,-10.7712,-10.778,-10.7826,-10.7822,-10.7727,-10.7716,-10.7751,-10.7773,-10.779,-10.7777,-10.7249,-10.7702,-10.7698,-10.7695,-10.7693,-10.7691,-10.7615,-10.7701,-10.7706,-10.7778,-10.779,-10.7819,-10.7894,-10.7867,-10.7931,-10.7987,-10.7935,-10.8029,-10.8036,-10.8088,-10.8096,-10.8168,-10.8094,-10.8147,-10.8159,-10.8172,-10.819,-10.7785,-10.8177,-10.8175,-10.8174,-10.8173,-10.8172,0,-10.8019,-10.8016,-10.8084,-10.8126,-10.8183,-10.8091,-10.8117,-10.817,-10.8255,-10.827,-10.8322,-10.8412,-10.8479,-10.8449,-10.8506,-10.8569,-10.8526,-10.8586,-10.8577,-10.8577,-10.8256,-10.8216,-10.862,-10.862,-10.862,-10.8619,-10.8619,-10.8619,-10.8236,-10.8375,-10.8343,-10.8488,-10.8483,-10.8575,-10.8597,-10.8622,-10.8633,-10.8739,-10.8794,-10.8775,-10.8771,-10.8828,-10.8884,-10.8874,-10.8897,-10.8973,-10.8946,-10.8645,-10.86,-10.8558,-10.852,-10.898,-10.8981,-10.926,-10.9262,-10.9264]},{"header":{"parameterUnit":"m.s-1","parameterCategory":1,"la1":30.2991,"la2":30.254,"lo1":-89.0895,"lo2":-89.0444,"dy":0.0017,"dx":0.0017,"nx":28,"ny":28,"refTime":"2024-06-17T21:00:00:Z","depth":0,"parameterNumber":3,"parameterNumberName":"V-component_of_WINDS"},"data":[0,0,0,0,0,0,0,0,0,0,0,0,0,0,0,0,0,0,0,0,0,0,0,0,0,0,0,0,0,0,0,0,0,0,0,0,0,0,0,0,0,0,0,0,0,0,0,0,0,0,0,0,0,0,0,0,0,0,2.0648,2.0648,0,2.0602,2.0601,2.0601,2.0518,2.0517,2.0515,2.0514,2.0466,2.0466,2.0466,0,0,0,0,0,0,0,0,0,0,0,0,0,2.0668,2.0668,2.0648,2.0648,2.0647,2.0602,2.0601,2.06,2.0519,2.0517,2.0515,2.0513,2.0466,2.0466,2.0466,0,0,0,0,0,0,0,0,0,0,0,0,0,2.0644,2.0668,2.0649,2.0601,2.0596,2.0602,2.0601,2.06,2.0519,2.0517,2.0514,2.0512,2.0465,2.0466,2.0466,2.0514,0,0,2.0467,2.0467,0,0,0,0,0,0,0,0,2.0646,2.0644,2.0609,2.0604,2.0599,2.0563,2.059,2.0571,2.052,2.0548,2.0514,2.0511,2.05,2.0497,2.0494,2.0512,2.051,2.0467,2.0467,2.0467,2.0467,0,0,0,0,0,0,0,2.0648,2.0645,2.063,2.0608,2.0602,2.0582,2.0576,2.0586,2.0538,2.0546,2.054,2.0535,2.0497,2.0494,2.0492,2.0509,2.0467,2.0467,2.0467,2.0467,2.0565,2.0568,0,0,0,0,0,0,2.0656,2.0647,2.0631,2.0628,2.0617,2.0584,2.0577,2.0577,2.0537,2.0529,2.0537,2.0532,2.0494,2.0492,2.049,2.0543,2.0467,2.0467,2.0467,2.0563,2.0566,2.0569,0,0,0,0,0,0,2.0657,2.0656,2.0633,2.0636,2.0632,2.0586,2.0587,2.0578,2.0574,2.0531,2.0522,2.0543,2.0492,2.0489,2.0509,2.054,2.0467,2.0467,2.056,2.0564,2.0567,2.0651,0,0,0,0,0,0,2.0658,2.0656,2.0674,2.0637,2.0632,2.0653,2.0589,2.0578,2.0575,2.0567,2.0534,2.0526,2.049,2.0509,2.0509,2.0539,2.0468,2.0557,2.0562,2.0566,2.0645,2.0657,2.0667,0,0,0,0,0,2.0659,2.0699,2.0675,2.0673,2.0653,2.0655,2.0652,2.061,2.0578,2.0595,2.0568,2.0527,2.0538,2.0512,2.0511,2.0542,2.0555,2.056,2.0566,2.064,2.0655,2.0667,0,0,0,0,0,0,2.0739,2.0693,2.0666,2.0695,2.068,2.0641,2.0661,2.0627,2.062,2.0612,2.0561,2.0554,2.0581,2.0564,2.0535,2.0587,2.054,2.0546,2.0597,2.061,2.0621,2.0623,2.0468,0,0,0,0,0,2.0761,2.0766,2.0725,2.0755,2.0749,2.0707,2.0706,2.0676,2.0657,2.065,2.0624,2.0608,2.0608,2.0608,2.0606,2.0643,2.0635,2.0665,2.0676,2.0685,2.069,2.0709,2.0721,2.0587,2.0587,2.0587,0,0,2.0804,2.078,2.0786,2.0771,2.0755,2.0762,2.0702,2.0711,2.0716,2.0651,2.0667,2.0649,2.0628,2.0657,2.0668,2.0643,2.0726,2.0692,2.07,2.0699,2.0716,2.0728,2.074,2.0591,2.059,2.0589,0,0,2.0886,2.0869,2.0891,2.0878,2.0855,2.0827,2.0833,2.08,2.0785,2.0801,2.0753,2.0759,2.0759,2.0746,2.074,2.0821,2.0783,2.0822,2.0878,2.0898,2.0908,2.0917,2.0945,2.0956,2.0827,2.0828,2.0828,0,2.0943,2.0951,2.0908,2.0921,2.0915,2.0859,2.0882,2.0871,2.0849,2.0847,2.082,2.082,2.0802,2.0827,2.0847,2.0844,2.0849,2.0824,2.091,2.0919,2.0927,2.0953,2.0964,2.0832,2.0832,2.0831,2.0831,0,2.1022,2.1028,2.105,2.103,2.1028,2.1046,2.1006,2.1009,2.098,2.0956,2.0973,2.095,2.0942,2.0947,2.0918,2.0968,2.0953,2.092,2.087,2.0945,2.0969,2.0978,2.0839,2.0837,2.0836,2.0835,0,0,2.1149,2.1108,2.1116,2.1107,2.1079,2.1084,2.1101,2.1093,2.1097,2.1085,2.1097,2.11,2.1069,2.1062,2.1032,2.1049,2.1114,2.1013,2.1011,2.1031,2.1168,2.1192,2.1204,2.1091,2.1093,2.1094,2.1169,0,2.1224,2.1249,2.1212,2.1245,2.1251,2.1199,2.1214,2.1199,2.1177,2.118,2.1156,2.1159,2.1118,2.1113,2.1128,2.1103,2.1141,2.1098,2.1101,2.1101,2.1105,2.1217,2.1242,2.1314,2.1178,2.118,2.1181,0,2.1314,2.1306,2.1341,2.1312,2.1313,2.1327,2.1318,2.1321,2.1304,2.1287,2.1281,2.1246,2.1261,2.1216,2.1236,2.1207,2.1207,2.1196,2.1197,2.1194,2.1144,2.1215,2.1336,2.1346,2.1195,2.1194,2.1193,0,2.1402,2.1401,2.1421,2.1415,2.1383,2.1394,2.1381,2.1362,2.136,2.1353,2.1352,2.1347,2.1344,2.1341,2.1306,2.1277,2.133,2.1282,2.1316,2.1317,2.1327,2.1326,2.1448,2.1331,2.1331,2.133,2.133,0,2.1488,2.151,2.146,2.1473,2.1497,2.1455,2.1481,2.1463,2.1447,2.1455,2.1411,2.142,2.1374,2.1378,2.1352,2.1372,2.1371,2.1358,2.135,2.136,2.1362,2.1357,2.1351,2.1333,2.1333,2.1332,2.1332,0,2.1589,2.1557,2.1575,2.1544,2.1537,2.1556,2.153,2.154,2.1517,2.1528,2.1529,2.1493,2.1496,2.1462,2.1458,2.144,2.1472,2.1456,2.1477,2.1472,2.1507,2.1503,2.1628,2.1642,2.1518,2.152,2.1521,0,2.1644,2.1661,2.1632,2.1634,2.1624,2.1629,2.1627,2.1588,2.1589,2.1572,2.1585,2.1584,2.1581,2.1589,2.1563,2.156,2.1543,2.1587,2.1542,2.1552,2.1542,2.154,2.1541,2.1595,2.1597,2.1598,2.1599,0,2.1746,2.173,2.1729,2.1724,2.1724,2.1718,2.1709,2.1714,2.1672,2.1675,2.1678,2.1676,2.1673,2.1673,2.1666,2.1653,2.1619,2.1614,2.1622,2.1631,2.1642,2.1635,2.1501,2.1611,2.1609,2.1609,2.1608,2.1608,2.1825,2.1837,2.1819,2.182,2.181,2.1804,2.1812,2.1791,2.1793,2.1787,2.1765,2.1772,2.1756,2.1743,2.1734,2.1739,2.1717,2.1729,2.1731,2.1734,2.174,2.1644,2.1738,2.1738,2.1737,2.1737,2.1737,0,2.1923,2.191,2.1912,2.1901,2.1903,2.1872,2.1862,2.1865,2.1872,2.186,2.1859,2.1863,2.1864,2.1839,2.1837,2.1846,2.183,2.1846,2.1844,2.1842,2.1759,2.1753,2.1859,2.1859,2.1859,2.1859,2.1859,2.1859,2.1974,2.1993,2.1975,2.1989,2.1976,2.1982,2.1979,2.1973,2.1963,2.197,2.197,2.1955,2.1938,2.1935,2.1934,2.1927,2.1928,2.1949,2.1936,2.1859,2.1847,2.1836,2.1829,2.195,2.195,2.2017,2.2018,2.2019]}]]